Location: Rokycany
(49.7330°N, 13.6000°E)
Time: 21:04:54
(UTC+01:00)

ISS - Visible Passes

Search period start: 24 March 2019 00:00
Search period end: 03 April 2019 01:00
Orbit: 408 x 411 km, 51.6° (Epoch: 24 March)

Date Brightness Start Highest point End Pass type
(mag) Time Alt. Az. Time Alt. Az. Time Alt. Az.
24 Mar -3.4 19:32:10 10° SW 19:35:18 43° SSE 19:37:09 21° E visible
24 Mar -1.5 21:08:32 10° W 21:09:56 23° W 21:09:56 23° W visible
25 Mar -3.8 20:17:51 10° WSW 20:21:09 82° NNW 20:21:38 62° ENE visible
26 Mar -3.9 19:27:11 10° WSW 19:30:29 76° SSE 19:33:13 14° ENE visible
26 Mar -2.1 21:03:54 10° W 21:05:59 34° WNW 21:05:59 34° WNW visible
27 Mar -3.5 20:13:09 10° W 20:16:27 63° N 20:17:27 39° ENE visible
27 Mar -0.5 21:49:54 10° WNW 21:50:13 12° WNW 21:50:13 12° WNW visible
28 Mar -3.6 19:22:24 10° W 19:25:42 73° NNW 19:28:51 11° ENE visible
28 Mar -2.6 20:59:11 10° WNW 21:01:37 43° NW 21:01:37 43° NW visible
29 Mar -3.4 20:08:26 10° W 20:11:43 60° N 20:12:58 33° ENE visible
29 Mar -0.8 21:45:06 10° WNW 21:45:43 15° WNW 21:45:43 15° WNW visible
30 Mar -3.4 19:17:40 10° W 19:20:57 60° N 19:24:14 10° ENE visible
30 Mar -3.1 20:54:23 10° WNW 20:57:01 54° WNW 20:57:01 54° WNW visible
31 Mar -3.7 21:03:38 10° WNW 21:06:57 70° NNE 21:08:18 32° E visible
31 Mar -0.9 22:40:19 10° W 22:41:03 15° W 22:41:03 15° W visible
01 Apr -3.5 20:12:52 10° WNW 20:16:09 61° N 20:19:26 10° E visible
01 Apr -3.3 21:49:31 10° WNW 21:52:20 52° WSW 21:52:20 52° WSW visible
02 Apr -3.9 20:58:44 10° WNW 21:02:03 83° SSW 21:03:36 29° ESE visible
02 Apr -0.9 22:35:44 10° W 22:36:21 13° W 22:36:21 13° W visible
